Location: Archemont
(49.1579°N, 1.7598°E)
Time: 18:38:04
(UTC+00:00)

Courier 1B Rocket - All Passes

Search period start: 19 April 2024 00:00
Search period end: 29 April 2024 00:00
Orbit: 920 x 1201 km, 28.2° (Epoch: 18 April)

Date Brightness Start Highest point End Pass type
(mag) Time Alt. Az. Time Alt. Az. Time Alt. Az.
19 Apr - 04:48:42 10° S 04:49:01 10° SSE 04:49:19 10° SSE daylight
19 Apr - 06:38:39 10° SSW 06:41:03 12° S 06:43:24 10° SSE daylight
20 Apr - 05:37:34 10° SSW 05:40:18 12° S 05:42:58 10° SSE daylight
21 Apr - 04:36:54 10° SSW 04:39:31 12° S 04:42:05 10° SSE daylight
21 Apr - 06:29:18 10° SSW 06:31:35 12° S 06:33:49 10° S daylight
22 Apr - 03:36:48 10° S 03:38:43 11° SSE 03:40:37 10° SSE visible
22 Apr - 05:27:46 10° SSW 05:30:49 13° S 05:33:48 10° SSE daylight
23 Apr - 04:26:42 10° SSW 04:30:01 13° S 04:33:16 10° SSE daylight
23 Apr - 06:20:37 10° SSW 06:22:04 11° SSW 06:23:31 10° S daylight
24 Apr - 03:26:00 10° SSW 03:29:12 13° S 03:32:21 10° SSE visible
24 Apr - 05:18:23 10° SSW 05:21:19 13° S 05:24:12 10° SSE daylight
25 Apr - 02:25:49 10° S 02:28:22 12° SSE 02:30:53 10° SSE visible
25 Apr - 04:16:58 10° SSW 04:20:31 14° S 04:23:59 10° SSE daylight
26 Apr - 03:15:56 10° SSW 03:19:40 14° S 03:23:20 10° SSE visible
26 Apr - 05:09:31 10° SSW 05:11:46 11° SSW 05:14:01 10° S daylight
27 Apr - 02:15:17 10° SSW 02:18:49 14° S 02:22:19 10° SE visible
27 Apr - 04:07:36 10° SW 04:10:58 13° S 04:14:18 10° SSE daylight
28 Apr - 01:15:08 10° S 01:17:57 12° SSE 01:20:47 10° SE visible
28 Apr - 03:06:16 10° SSW 03:10:08 14° S 03:13:56 10° SSE visible
